Regional Weather Roundup
Issued by NWS Upton, NY

Current Version | Previous Version | Text Only | Print | Product List | Glossary Off
Versions: 1 2 3 4 5 6 7 8 9 10 11 12 13 14 15 16 17 18 19 20 21 22 23 24 25 26 27 28 29 30 31 32 33 34 35 36 37 38 39 40 41 42 43 44 45 46 47 48 49 50
000 ASUS41 KOKX 161308 RWROKX REGIONAL WEATHER ROUNDUP NATIONAL WEATHER SERVICE NEW YORK NY 900 AM EDT WED AUG 16 2017 NOTE: "FAIR" INDICATES FEW OR NO CLOUDS BELOW 12,000 FEET WITH NO SIGNIFICANT WEATHER AND/OR OBSTRUCTIONS TO VISIBILITY. NYZ071-072-176-178-NJZ106-104-161400- NEW YORK CITY METRO AREA CITY SKY/WX TMP DP RH WIND PRES REMARKS Central Park SUNNY 73 66 78 CALM 29.99S Bronx Bot Gard N/A 75 64 69 NW3 29.96F LaGuardia APRT MOSUNNY 75 66 73 N7 29.95S Kennedy INTL MOSUNNY 76 69 79 NW10 29.96S Breezy Point N/A 73 N/A N/A NW6 N/A Newark/Liberty MOSUNNY 76 64 66 N13G18 29.96S Teterboro SUNNY 75 65 70 NW8 29.95S $$ NYZ177-179-078>081-161400- LONG ISLAND NEW YORK CITY SKY/WX TMP DP RH WIND PRES REMARKS Jones Beach N/A 73 N/A N/A N7 N/A Matinecock PT N/A 73 N/A N/A W2 N/A Farmingdale SUNNY 75 68 78 N9 29.95S MacArthur/ISP MOSUNNY 76 69 79 N10 29.94S Shirley SUNNY 77 70 79 N9 29.94S Mt Sinai Harb N/A N/A N/A N/A NW2 N/A Westhampton SUNNY 76 68 76 N8 29.95S East Hampton FAIR 74 69 84 CALM 29.92F Montauk N/A 73 70 90 NW7 29.93F $$ NYZ052-065-067-161400- HUDSON VALLEY CITY SKY/WX TMP DP RH WIND PRES REMARKS White Plains SUNNY 75 65 70 NW9 29.96S Larchmont Harb N/A 73 N/A N/A NW5 N/A Croton On Huds N/A 77 N/A N/A N3 N/A Newburgh SUNNY 70 66 88 CALM 30.00S Montgomery SUNNY 72 64 76 CALM 29.98F Poughkeepsie PTSUNNY 68 64 87 CALM 29.98S Albany PTSUNNY 72 63 73 NW12 29.99R $$ NJZ001-105-106-008-010-013-015-019>022-104-161400- NEW JERSEY CITY SKY/WX TMP DP RH WIND PRES REMARKS Newark/Liberty MOSUNNY 76 64 66 N13G18 29.96S Teterboro SUNNY 75 65 70 NW8 29.95S Caldwell SUNNY 74 67 78 MISG 29.98S Somerville SUNNY 75 68 78 N7 29.96S Linden FAIR 74 67 77 CALM 29.97R Perth Amboy N/A 73 N/A N/A N10 N/A Sussex SUNNY 72 65 78 NE6 30.00S Andover N/A 71 65 81 CALM 30.01R Trenton MOSUNNY 73 69 87 N7 29.97F Millville MOSUNNY 75 74 96 NW5 29.98S Atlantic City CLOUDY 76 72 87 NW8 29.97R Wrightstown CLOUDY 72 71 99 NE6 29.95R Toms River CLOUDY 72 70 93 NW8 29.98R Belmar NOT AVBL $$ PAZ047>061-062-071-161400- EASTERN PENNSYLVANIA CITY SKY/WX TMP DP RH WIND PRES REMARKS Philadelphia MOSUNNY 75 69 81 NW3 29.99R Allentown CLOUDY 70 68 93 CALM 30.00R FOG Scranton CLOUDY 65 65 100 CALM 30.04S FOG $$ CTZ002-004>006-009-010-012-RIZ004-006-007-MAZ004-011-015-161400- SOUTHERN NEW ENGLAND IN CT CITY SKY/WX TMP DP RH WIND PRES REMARKS Bradley INTL MOSUNNY 74 65 73 NW7 29.95S Hartford SUNNY 74 64 71 N12 29.94S Danbury SUNNY 73 64 73 NW8 29.98S Wtrbury/Oxford MOSUNNY 71 64 78 NW7 29.98R Norwalk Harbor N/A 73 N/A N/A N9 N/A Bridgeport SUNNY 76 64 66 N13 29.94S Meriden MOSUNNY 74 64 71 VRB3 29.95R New Haven SUNNY 76 65 68 N9 29.94S Chester NOT AVBL Groton SUNNY 75 67 76 NW9 29.92S Wilimantic SUNNY 74 66 76 N8 29.94S IN RI CITY SKY/WX TMP DP RH WIND PRES REMARKS Providence MOSUNNY 76 67 73 NW9 29.92F Block Island SUNNY 72 68 87 NW8 29.93S Westerly MOSUNNY 76 69 79 NW8 29.93S IN MA CITY SKY/WX TMP DP RH WIND PRES REMARKS Boston MOSUNNY 76 63 64 NW12 29.92S Worcester MOSUNNY 70 61 73 NW9 29.97R Westfield SUNNY 74 65 73 N8 29.95R Provincetown SUNNY 72 67 84 NW12 29.91R Nantucket PTSUNNY 73 70 90 NW7 29.90S $$ ANZ330-335-338-340-345-350-353-355-161400- COASTAL MARINE OBSERVATIONS STATION/POSITION TIME SKY/WX TEMP WIND PRES VSBY WAVE AIR SEA DIR/SP/G HT/PER (UTC) (F) (DEG/KT/KT) (MB) (MI) (FT/S) NY HARB ENTRANCE 1150 72 74 310/ 12/ 14 1013.6 6/11 GREAT SOUTH BAY 1230 72 76 330/ 8/ 10 N/A 23 SSW MONTAUK P 1150 71 71 1013.7 5/12 15 E BARNEGAT LI 1230 76 N/A 6/13 HUDSON CANYON 1150 74 74 340/ 12/ 14 1012.9 6/11 KINGS POINT 1230 73 72 40/ 2/ 3 1014.5 EXECUTION ROCKS NOT AVBL WESTERN LI SOUND NOT AVBL CENTRAL LI SOUND NOT AVBL EASTERN LI SOUND NOT AVBL ROBBINS REEF 1224 330/ 9/ 11 1015.3 $$ >>>>>>>>>>>>>>>>>>>>>>>>>>>> KEY <<<<<<<<<<<<<<<<<<<<<<<<<<< > < > SKY/WX - Sky Condition/Present Weather < > TMP - Temperature in Fahrenheit < > DP - Dew Point in Fahrenheit < > RH - Relative Humidity in Percent < > WIND - Direction (from) and Speed in MPH < > PRES - Mean Sea Level Pressure (inches of Hg) < > WCI - Wind Chill Index < > VSB - VISIBILITY IN MILES < > HX - HEAT INDEX < > TC - TEMPERATURE IN CELSIUS < > VRB - VARIABLE WIND DIRECTION < > < >>>>>>>>>>>>>>>>>>>>>>>>>>>> KEY <<<<<<<<<<<<<<<<<<<<<<<<<<<

USA.gov is the U.S. government's official web portal to all federal, state and local government web resources and services.